This demonstration page uses our WeatherBlox Daily Observations layout. Learn more.

Left ArrowRight Arrow

Hourly Observations for March 29, 2018

Temp ( °F °C ) Dew Point ( °F °C ) Humidity (%) Winds ( mph kmh ) Pressure ( in mb ) Visibility ( mi km ) Precip ( " mm )
12:15 am 00:15 Cloudy with Fog 45 7 45 7 100 100 N N/A 30.06 1018 1 1 N/A
12:35 am 00:35 Cloudy with Fog 45 7 45 7 100 100 N N/A 30.06 1018 1 1 N/A
12:55 am 00:55 Cloudy with Fog 45 7 45 7 100 100 N N/A 30.06 1018 1 1 N/A
1:15 am 01:15 Cloudy with Fog 45 7 45 7 100 100 N N/A 30.03 1017 1 1 N/A
1:35 am 01:35 Cloudy with Fog 45 7 45 7 100 100 NNE 3 6 30.03 1017 1 1 N/A
1:55 am 01:55 Cloudy with Mist and Fog 45 7 45 7 100 100 N N/A 30.03 1017 1 2 N/A
2:15 am 02:15 Cloudy with Mist and Fog 45 7 45 7 100 100 N N/A 30.06 1018 1 1 N/A
2:35 am 02:35 Cloudy with Fog 45 7 45 7 100 100 N N/A 30.03 1017 1 1 N/A
2:55 am 02:55 Cloudy with Mist and Fog 45 7 45 7 100 100 N N/A 30.03 1017 1 1 N/A
3:15 am 03:15 Cloudy with Mist and Fog 45 7 45 7 100 100 N N/A 30.03 1017 1 1 N/A
3:35 am 03:35 Cloudy with Mist and Fog 45 7 45 7 100 100 NNE 3 6 30.03 1017 1 2 N/A
3:55 am 03:55 Cloudy with Mist and Fog 45 7 45 7 100 100 N N/A 30.03 1017 1 2 N/A
4:15 am 04:15 Cloudy with Mist and Fog 45 7 45 7 100 100 N N/A 30.03 1017 1 2 N/A
4:35 am 04:35 Cloudy with Mist and Fog 45 7 45 7 100 100 N N/A 30.03 1017 1 2 N/A
4:55 am 04:55 Cloudy with Mist and Fog 45 7 45 7 100 100 N N/A 30.00 1016 1 2 N/A
5:15 am 05:15 Cloudy with Mist and Fog 45 7 45 7 100 100 N N/A 30.03 1017 1 2 N/A
5:35 am 05:35 Cloudy with Mist and Fog 45 7 45 7 100 100 N N/A 30.03 1017 1 2 N/A
5:55 am 05:55 Cloudy with Mist and Fog 45 7 45 7 100 100 N N/A 30.03 1017 2 2 N/A
6:15 am 06:15 Cloudy with Mist and Fog 45 7 45 7 100 100 N N/A 30.00 1016 2 3 N/A
6:35 am 06:35 Cloudy with Mist and Fog 45 7 45 7 100 100 NE 5 7 30.00 1016 2 3 N/A
6:55 am 06:55 Cloudy with Mist and Fog 45 7 45 7 100 100 N N/A 30.03 1017 2 3 N/A
7:15 am 07:15 Cloudy with Mist and Fog 45 7 45 7 100 100 N N/A 30.03 1017 1 2 N/A
7:35 am 07:35 Cloudy with Mist and Fog 45 7 45 7 100 100 N N/A 30.03 1017 1 2 N/A
7:55 am 07:55 Cloudy with Mist and Fog 45 7 45 7 100 100 N N/A 30.03 1017 1 2 N/A
8:15 am 08:15 Cloudy with Mist and Fog 45 7 45 7 100 100 N N/A 30.03 1017 2 2 N/A
8:35 am 08:35 Cloudy with Mist and Fog 45 7 45 7 100 100 N N/A 30.03 1017 1 2 N/A
8:55 am 08:55 Cloudy with Mist and Fog 45 7 45 7 100 100 N N/A 30.03 1017 2 2 N/A
9:15 am 09:15 Cloudy with Mist and Fog 45 7 45 7 100 100 N N/A 30.03 1017 2 2 N/A
9:35 am 09:35 Cloudy with Mist and Fog 45 7 45 7 100 100 N N/A 30.03 1017 2 2 N/A
9:55 am 09:55 Cloudy with Mist and Fog 46 8 46 8 100 100 N N/A 30.03 1017 2 3 N/A
10:15 am 10:15 Cloudy with Mist and Fog 46 8 46 8 100 100 N N/A 30.03 1017 2 3 N/A
10:35 am 10:35 Cloudy with Mist and Fog 46 8 46 8 100 100 N N/A 30.06 1018 2 3 N/A
10:55 am 10:55 Cloudy with Mist and Fog 48 9 48 9 100 100 E 5 7 30.03 1017 2 3 N/A
11:15 am 11:15 Cloudy with Mist and Fog 48 9 48 9 100 100 N N/A 30.03 1017 3 4 N/A
11:35 am 11:35 Cloudy with Mist and Fog 50 10 50 10 100 100 N N/A 30.00 1016 3 4 N/A
11:55 am 11:55 Cloudy with Mist and Fog 52 11 52 11 100 100 N N/A 30.00 1016 3 5 N/A
12:15 pm 12:15 Cloudy with Mist and Fog 52 11 52 11 100 100 N N/A 29.97 1015 4 6 N/A
12:35 pm 12:35 Mostly Cloudy with Mist and Fog 54 12 52 11 94 94 N N/A 29.97 1015 4 6 N/A
12:55 pm 12:55 Mostly Cloudy with Mist and Fog 55 13 52 11 88 88 ESE 3 6 29.97 1015 5 8 N/A
1:15 pm 13:15 Hazy 59 15 54 12 82 82 SE 3 6 29.94 1014 5 8 N/A
1:35 pm 13:35 Partly Cloudy 61 16 54 12 77 77 S 7 11 29.94 1014 7 11 N/A
1:55 pm 13:55 Partly Cloudy 61 16 54 12 77 77 SSW 6 9 29.91 1013 7 11 N/A
2:15 pm 14:15 Sunny 63 17 55 13 77 77 SSW 7 11 29.91 1013 10 16 N/A
2:35 pm 14:35 Sunny 63 17 55 13 77 77 S 8 13 29.91 1013 10 16 N/A
2:55 pm 14:55 Sunny 64 18 55 13 73 73 S 8 13 29.88 1012 10 16 N/A
3:15 pm 15:15 Sunny 66 19 55 13 68 68 SSW 6 9 29.88 1012 10 16 N/A
3:35 pm 15:35 Sunny 68 20 57 14 69 69 S 8 13 29.85 1011 10 16 N/A
3:55 pm 15:55 Sunny 68 20 57 14 69 69 S 9 15 29.85 1011 10 16 N/A
4:15 pm 16:15 Sunny 70 21 57 14 64 64 S 8 13 29.85 1011 10 16 N/A
4:35 pm 16:35 Sunny 70 21 57 14 64 64 S 7 11 29.83 1010 10 16 N/A
4:55 pm 16:55 Sunny 72 22 59 15 65 65 SSE 6 9 29.83 1010 10 16 N/A
5:15 pm 17:15 Sunny 72 22 59 15 65 65 SE 3 6 29.83 1010 10 16 N/A
5:35 pm 17:35 Sunny 73 23 59 15 61 61 S 9 15 29.80 1009 10 16 N/A
5:55 pm 17:55 Sunny 73 23 59 15 61 61 SSE 6 9 29.80 1009 10 16 N/A
6:15 pm 18:15 Sunny 73 23 59 15 61 61 SSE 5 7 29.77 1008 10 16 N/A
6:35 pm 18:35 Sunny 73 23 59 15 61 61 SSE 5 7 29.77 1008 10 16 N/A
6:55 pm 18:55 Sunny 73 23 59 15 61 61 ESE 3 6 29.77 1008 10 16 N/A
7:15 pm 19:15 Sunny 73 23 59 15 61 61 S 6 9 29.77 1008 10 16 N/A
7:35 pm 19:35 Clear 72 22 57 14 61 61 S 7 11 29.77 1008 10 16 N/A
7:55 pm 19:55 Clear 72 22 55 13 57 57 S 8 13 29.77 1008 10 16 N/A
8:15 pm 20:15 Clear 72 22 55 13 57 57 S 10 17 29.77 1008 10 16 N/A
8:35 pm 20:35 Clear 72 22 55 13 57 57 S 9 15 29.77 1008 10 16 N/A
8:55 pm 20:55 Clear 72 22 55 13 57 57 S 10 17 29.77 1008 10 16 N/A
9:15 pm 21:15 Clear 72 22 55 13 57 57 S 12 19 29.77 1008 10 16 N/A
9:35 pm 21:35 Clear 72 22 55 13 57 57 S 12 19 29.74 1007 10 16 N/A
9:55 pm 21:55 Clear 72 22 55 13 57 57 S 14 22 29.77 1008 10 16 N/A
10:15 pm 22:15 Clear 72 22 55 13 57 57 S 17 28 29.74 1007 10 16 N/A
10:35 pm 22:35 Clear 72 22 55 13 57 57 S 12 19 29.74 1007 10 16 N/A
10:55 pm 22:55 Clear 72 22 55 13 57 57 SW 16 26 29.74 1007 10 16 N/A
11:15 pm 23:15 Clear 72 22 55 13 57 57 SSW 10 17 29.74 1007 10 16 N/A
11:35 pm 23:35 Clear 72 22 55 13 57 57 SSW 10 17 29.74 1007 10 16 N/A
11:55 pm 23:55 Clear 72 22 55 13 57 57 SW 15 24 29.74 1007 10 16 N/A

Powered by AerisWeather